| time (UTC) | temp F | wind direction | speed MPH | gust MPH | rain 1hr in | rain 24hr in | rain mn in | humidity % | barometer mb |
| 20260508130737 | 60 | 348 | 2.0 | 4.0 | 0.00 | 0.00 | 0.00 | 29 | 1019.2 |
| 20260508125837 | 60 | 345 | 2.0 | 6.0 | 0.00 | 0.00 | 0.00 | 30 | 1019.3 |
| 20260508124937 | 60 | 331 | 3.0 | 6.0 | 0.00 | 0.00 | 0.00 | 29 | 1019.3 |
| 20260508124037 | 60 | 103 | 1.0 | 2.0 | 0.00 | 0.00 | 0.00 | 32 | 1019.3 |
| 20260508123137 | 60 | 62 | 0.0 | 4.0 | 0.00 | 0.00 | 0.00 | 35 | 1019.5 |
| 20260508122237 | 59 | 341 | 2.0 | 5.0 | 0.00 | 0.00 | 0.00 | 34 | 1019.3 |
| 20260508121337 | 58 | 205 | 2.0 | 5.0 | 0.00 | 0.00 | 0.00 | 37 | 1019.3 |
| 20260508114637 | 57 | 78 | 2.0 | 4.0 | 0.00 | 0.00 | 0.00 | 37 | 1019.2 |
| 20260508113737 | 57 | 55 | 2.0 | 5.0 | 0.00 | 0.00 | 0.00 | 37 | 1019.2 |
| 20260508112837 | 57 | 337 | 2.0 | 6.0 | 0.00 | 0.00 | 0.00 | 37 | 1019.4 |
| 20260508111937 | 59 | 351 | 2.0 | 5.0 | 0.00 | 0.00 | 0.00 | 36 | 1019.4 |
| 20260508110137 | 59 | 338 | 2.0 | 4.0 | 0.00 | 0.00 | 0.00 | 42 | 1019.3 |
| 20260508105237 | 58 | 26 | 3.0 | 6.0 | 0.00 | 0.00 | 0.00 | 41 | 1019.4 |
| 20260508104337 | 57 | 1 | 2.0 | 6.0 | 0.00 | 0.00 | 0.00 | 44 | 1019.5 |
| 20260508103437 | 56 | 15 | 2.0 | 4.0 | 0.00 | 0.00 | 0.00 | 48 | 1019.4 |
| 20260508102537 | 56 | 89 | 1.0 | 4.0 | 0.00 | 0.00 | 0.00 | 51 | 1019.5 |
| 20260508101637 | 55 | 68 | 3.0 | 6.0 | 0.00 | 0.00 | 0.00 | 54 | 1019.6 |
| 20260508100737 | 54 | 1 | 3.0 | 4.0 | 0.00 | 0.00 | 0.00 | 53 | 1019.4 |
| 20260508095837 | 54 | 342 | 2.0 | 6.0 | 0.00 | 0.00 | 0.00 | 56 | 1019.5 |
| 20260508094037 | 53 | 2 | 2.0 | 6.0 | 0.00 | 0.00 | 0.00 | 56 | 1019.5 |
| 20260508093137 | 53 | 15 | 2.0 | 6.0 | 0.00 | 0.00 | 0.00 | 55 | 1019.4 |
| 20260508092237 | 54 | 6 | 3.0 | 5.0 | 0.00 | 0.00 | 0.00 | 53 | 1019.4 |
| 20260508091337 | 54 | 1 | 2.0 | 5.0 | 0.00 | 0.00 | 0.00 | 52 | 1019.5 |
| 20260508085537 | 57 | 339 | 2.0 | 4.0 | 0.00 | 0.00 | 0.00 | 46 | 1019.6 |
| 20260508084637 | 57 | 310 | 2.0 | 4.0 | 0.00 | 0.00 | 0.00 | 51 | 1019.5 |
| 20260508082837 | 55 | 127 | 1.0 | 3.0 | 0.00 | 0.00 | 0.00 | 64 | 1019.6 |
| 20260508081937 | 54 | 318 | 0.0 | 2.0 | 0.00 | 0.00 | 0.00 | 67 | 1019.4 |
| 20260508081037 | 53 | 1 | 0.0 | 2.0 | 0.00 | 0.00 | 0.00 | 70 | 1019.4 |
| 20260508080137 | 52 | 354 | 0.0 | 2.0 | 0.00 | 0.00 | 0.00 | 70 | 1019.4 |
| 20260508075237 | 52 | 312 | 0.0 | 2.0 | 0.00 | 0.00 | 0.00 | 70 | 1019.4 |
| 20260508074337 | 52 | 284 | 0.0 | 4.0 | 0.00 | 0.00 | 0.00 | 69 | 1019.4 |
| 20260508073437 | 53 | 217 | 1.0 | 2.0 | 0.00 | 0.00 | 0.00 | 69 | 1019.4 |
| 20260508072537 | 53 | 95 | 1.0 | 3.0 | 0.00 | 0.00 | 0.00 | 70 | 1019.2 |
| 20260508071637 | 54 | 118 | 1.0 | 3.0 | 0.00 | 0.00 | 0.00 | 72 | 1019.1 |
| 20260508064937 | 52 | 314 | 0.0 | 2.0 | 0.00 | 0.00 | 0.00 | 81 | 1018.9 |
| 20260508064037 | 51 | 314 | 0.0 | 4.0 | 0.00 | 0.00 | 0.00 | 81 | 1018.8 |
| 20260508063137 | 51 | 314 | 1.0 | 2.0 | 0.00 | 0.00 | 0.00 | 86 | 1018.9 |
| 20260508062237 | 51 | 314 | 0.0 | 2.0 | 0.00 | 0.00 | 0.00 | 87 | 1018.7 |
| 20260508061337 | 51 | 295 | 0.0 | 2.0 | 0.00 | 0.00 | 0.00 | 93 | 1018.6 |
| 20260508060437 | 50 | 225 | 0.0 | 2.0 | 0.00 | 0.00 | 0.00 | 99 | 1018.6 |
| 20260508055537 | 49 | 225 | 0.0 | 2.0 | 0.00 | 0.00 | 0.00 | 99 | 1018.6 |
| 20260508054637 | 49 | 183 | 1.0 | 3.0 | 0.00 | 0.00 | 0.00 | 99 | 1018.6 |
| 20260508053737 | 49 | 105 | 1.0 | 4.0 | 0.00 | 0.00 | 0.00 | 99 | 1018.5 |
| 20260508052837 | 48 | 324 | 2.0 | 4.0 | 0.00 | 0.00 | 0.00 | 99 | 1018.4 |
| 20260508051937 | 48 | 46 | 2.0 | 4.0 | 0.00 | 0.00 | 0.00 | 99 | 1018.5 |
| 20260508051037 | 48 | 0 | 0.0 | 0.0 | 0.00 | 0.00 | 0.00 | 99 | 1018.5 |
| 20260508045236 | 47 | 0 | 0.0 | 0.0 | 0.00 | 0.00 | 0.00 | 99 | 1018.2 |
| 20260508044337 | 47 | 0 | 0.0 | 0.0 | 0.00 | 0.00 | 0.00 | 99 | 1018.2 |
| 20260508043436 | 47 | 0 | 0.0 | 0.0 | 0.00 | 0.00 | 0.00 | 99 | 1018.1 |
| 20260508042536 | 46 | 1 | 0.0 | 1.0 | 0.00 | 0.00 | 0.00 | 99 | 1018.1 |
| 20260508041636 | 46 | 348 | 0.0 | 2.0 | 0.00 | 0.00 | 0.00 | 99 | 1018.1 |
| 20260508040736 | 46 | 0 | 0.0 | 0.0 | 0.00 | 0.00 | 0.00 | 99 | 1018.1 |
| 20260508035836 | 46 | 0 | 0.0 | 0.0 | 0.00 | 0.00 | 0.00 | 99 | 1018.1 |
| 20260508034936 | 46 | 0 | 0.0 | 0.0 | 0.00 | 0.00 | 0.00 | 99 | 1018.0 |
| 20260508034037 | 46 | 317 | 0.0 | 2.0 | 0.00 | 0.00 | 0.00 | 99 | 1017.8 |
| 20260508033136 | 46 | 314 | 0.0 | 2.0 | 0.00 | 0.00 | 0.00 | 99 | 1017.8 |
| 20260508032237 | 45 | 332 | 0.0 | 2.0 | 0.00 | 0.00 | 0.00 | 98 | 1017.8 |
| 20260508031336 | 45 | 0 | 0.0 | 0.0 | 0.00 | 0.00 | 0.00 | 97 | 1017.8 |
| 20260508030437 | 44 | 0 | 0.0 | 0.0 | 0.00 | 0.01 | 0.00 | 96 | 1017.7 |
| 20260508023736 | 44 | 1 | 0.0 | 1.0 | 0.00 | 0.01 | 0.00 | 95 | 1017.7 |
| 20260508022837 | 44 | 0 | 0.0 | 0.0 | 0.00 | 0.01 | 0.00 | 95 | 1017.6 |
| 20260508021936 | 44 | 0 | 0.0 | 0.0 | 0.00 | 0.01 | 0.00 | 94 | 1017.8 |
| 20260508021037 | 44 | 0 | 0.0 | 0.0 | 0.00 | 0.01 | 0.00 | 93 | 1017.8 |
| 20260508020137 | 44 | 0 | 0.0 | 0.0 | 0.00 | 0.01 | 0.00 | 93 | 1017.8 |
| 20260508015236 | 44 | 0 | 0.0 | 0.0 | 0.00 | 0.01 | 0.00 | 92 | 1017.7 |
| 20260508013436 | 44 | 0 | 0.0 | 0.0 | 0.00 | 0.01 | 0.00 | 91 | 1017.7 |
| 20260508012537 | 44 | 0 | 0.0 | 0.0 | 0.00 | 0.01 | 0.00 | 91 | 1017.6 |
| 20260508011637 | 44 | 0 | 0.0 | 0.0 | 0.00 | 0.01 | 0.00 | 90 | 1017.6 |
| 20260508010736 | 45 | 0 | 0.0 | 0.0 | 0.00 | 0.01 | 0.00 | 90 | 1017.5 |
| 20260508004937 | 45 | 0 | 0.0 | 0.0 | 0.00 | 0.01 | 0.00 | 89 | 1017.6 |
| 20260508004036 | 46 | 314 | 0.0 | 1.0 | 0.00 | 0.01 | 0.00 | 89 | 1017.6 |
| 20260508002237 | 46 | 309 | 1.0 | 3.0 | 0.00 | 0.01 | 0.00 | 89 | 1017.5 |
| 20260508001336 | 46 | 292 | 0.0 | 1.0 | 0.00 | 0.01 | 0.00 | 87 | 1017.6 |
| 20260508000436 | 45 | 0 | 0.0 | 0.0 | 0.00 | 0.01 | 0.00 | 86 | 1017.5 |
| 20260507235537 | 45 | 0 | 0.0 | 0.0 | 0.00 | 0.01 | 0.00 | 85 | 1017.7 |
| 20260507234636 | 45 | 0 | 0.0 | 0.0 | 0.00 | 0.01 | 0.00 | 85 | 1017.7 |
| 20260507233737 | 45 | 0 | 0.0 | 0.0 | 0.00 | 0.01 | 0.00 | 84 | 1017.7 |
| 20260507232836 | 45 | 0 | 0.0 | 0.0 | 0.00 | 0.01 | 0.00 | 83 | 1017.7 |
| 20260507231936 | 45 | 0 | 0.0 | 0.0 | 0.00 | 0.01 | 0.00 | 83 | 1017.7 |
| 20260507231036 | 45 | 0 | 0.0 | 0.0 | 0.00 | 0.01 | 0.00 | 82 | 1017.9 |
| 20260507230136 | 45 | 0 | 0.0 | 0.0 | 0.00 | 0.01 | 0.00 | 81 | 1017.9 |
| 20260507224336 | 45 | 0 | 0.0 | 0.0 | 0.00 | 0.01 | 0.00 | 80 | 1018.1 |
| 20260507223436 | 45 | 291 | 0.0 | 2.0 | 0.00 | 0.01 | 0.00 | 79 | 1017.9 |
| 20260507222536 | 45 | 291 | 0.0 | 2.0 | 0.00 | 0.01 | 0.00 | 78 | 1017.8 |
| 20260507221636 | 46 | 0 | 0.0 | 0.0 | 0.00 | 0.01 | 0.00 | 78 | 1018.0 |
| 20260507220736 | 46 | 281 | 0.0 | 1.0 | 0.00 | 0.01 | 0.00 | 77 | 1017.8 |
| 20260507215836 | 47 | 289 | 0.0 | 3.0 | 0.00 | 0.01 | 0.01 | 77 | 1017.7 |
| 20260507214936 | 47 | 301 | 1.0 | 3.0 | 0.00 | 0.01 | 0.01 | 78 | 1017.6 |
| 20260507214036 | 47 | 304 | 2.0 | 4.0 | 0.00 | 0.01 | 0.01 | 77 | 1017.5 |
| 20260507213136 | 47 | 292 | 0.0 | 4.0 | 0.00 | 0.01 | 0.01 | 77 | 1017.4 |
| 20260507212236 | 47 | 303 | 0.0 | 8.0 | 0.00 | 0.01 | 0.01 | 77 | 1017.3 |
| 20260507211337 | 47 | 318 | 0.0 | 7.0 | 0.00 | 0.01 | 0.01 | 77 | 1017.3 |
| 20260507210436 | 47 | 333 | 2.0 | 4.0 | 0.00 | 0.01 | 0.01 | 77 | 1017.2 |
| 20260507205536 | 47 | 317 | 1.0 | 5.0 | 0.00 | 0.01 | 0.01 | 76 | 1017.2 |
| 20260507204636 | 47 | 339 | 0.0 | 3.0 | 0.00 | 0.01 | 0.01 | 74 | 1017.1 |
| 20260507203737 | 47 | 325 | 0.0 | 4.0 | 0.00 | 0.01 | 0.01 | 73 | 1017.1 |
| 20260507202836 | 47 | 299 | 0.0 | 4.0 | 0.00 | 0.01 | 0.01 | 73 | 1017.0 |
| 20260507200136 | 48 | 312 | 1.0 | 4.0 | 0.00 | 0.01 | 0.01 | 69 | 1016.9 |
| 20260507195236 | 48 | 333 | 0.0 | 4.0 | 0.00 | 0.01 | 0.01 | 68 | 1016.8 |
| 20260507194336 | 48 | 311 | 0.0 | 4.0 | 0.00 | 0.02 | 0.01 | 66 | 1016.8 |
| 20260507192536 | 49 | 292 | 0.0 | 4.0 | 0.00 | 0.08 | 0.01 | 64 | 1016.7 |
| 20260507191636 | 49 | 292 | 1.0 | 5.0 | 0.00 | 0.09 | 0.01 | 64 | 1016.7 |
| 20260507190736 | 49 | 292 | 2.0 | 5.0 | 0.00 | 0.12 | 0.01 | 62 | 1016.5 |
| 20260507185836 | 50 | 292 | 1.0 | 6.0 | 0.00 | 0.15 | 0.01 | 61 | 1016.5 |
| 20260507184936 | 50 | 292 | 0.0 | 8.0 | 0.00 | 0.17 | 0.01 | 60 | 1016.2 |
| 20260507184036 | 50 | 292 | 1.0 | 3.0 | 0.00 | 0.17 | 0.01 | 57 | 1016.0 |
| 20260507183136 | 50 | 302 | 0.0 | 13.0 | 0.00 | 0.17 | 0.01 | 55 | 1016.2 |
| 20260507182236 | 51 | 303 | 0.0 | 6.0 | 0.00 | 0.17 | 0.01 | 52 | 1016.0 |
| 20260507181336 | 51 | 323 | 2.0 | 7.0 | 0.00 | 0.17 | 0.01 | 50 | 1015.9 |
| 20260507180436 | 52 | 306 | 0.0 | 4.0 | 0.00 | 0.17 | 0.01 | 47 | 1016.0 |
| 20260507175536 | 52 | 305 | 2.0 | 6.0 | 0.00 | 0.17 | 0.01 | 47 | 1015.8 |
| 20260507174636 | 53 | 319 | 2.0 | 5.0 | 0.00 | 0.17 | 0.01 | 46 | 1015.8 |
| 20260507173736 | 54 | 323 | 1.0 | 3.0 | 0.00 | 0.17 | 0.01 | 45 | 1015.7 |
| 20260507171036 | 53 | 310 | 1.0 | 5.0 | 0.00 | 0.17 | 0.01 | 45 | 1015.5 |
| 20260507170136 | 54 | 314 | 2.0 | 7.0 | 0.00 | 0.17 | 0.01 | 42 | 1015.6 |
| 20260507165236 | 54 | 334 | 2.0 | 8.0 | 0.00 | 0.17 | 0.01 | 41 | 1015.4 |
| 20260507164336 | 54 | 314 | 2.0 | 11.0 | 0.00 | 0.17 | 0.01 | 42 | 1015.4 |
| 20260507163436 | 55 | 317 | 2.0 | 6.0 | 0.00 | 0.17 | 0.01 | 39 | 1015.2 |
| 20260507162536 | 57 | 313 | 2.0 | 10.0 | 0.00 | 0.17 | 0.01 | 36 | 1015.2 |
| 20260507161637 | 60 | 314 | 1.0 | 8.0 | 0.00 | 0.17 | 0.01 | 29 | 1015.1 |
| 20260507160736 | 60 | 321 | 1.0 | 4.0 | 0.00 | 0.17 | 0.01 | 27 | 1015.1 |
| 20260507155836 | 60 | 304 | 1.0 | 5.0 | 0.00 | 0.17 | 0.01 | 27 | 1014.8 |
| 20260507154936 | 59 | 312 | 0.0 | 4.0 | 0.00 | 0.17 | 0.01 | 30 | 1014.9 |
| 20260507153136 | 58 | 283 | 2.0 | 9.0 | 0.00 | 0.17 | 0.01 | 33 | 1014.9 |
| 20260507151336 | 59 | 307 | 2.0 | 8.0 | 0.00 | 0.17 | 0.01 | 33 | 1014.9 |
| 20260507145536 | 58 | 312 | 0.0 | 10.0 | 0.00 | 0.17 | 0.01 | 35 | 1014.6 |
| 20260507144636 | 60 | 315 | 2.0 | 8.0 | 0.00 | 0.17 | 0.01 | 32 | 1014.7 |
| 20260507143737 | 59 | 311 | 2.0 | 6.0 | 0.00 | 0.17 | 0.01 | 35 | 1014.6 |
| 20260507141036 | 61 | 316 | 2.0 | 7.0 | 0.00 | 0.17 | 0.01 | 28 | 1014.6 |
| 20260507140136 | 61 | 324 | 1.0 | 5.0 | 0.00 | 0.17 | 0.01 | 27 | 1014.5 |
| 20260507135237 | 62 | 354 | 2.0 | 5.0 | 0.00 | 0.18 | 0.01 | 25 | 1014.4 |
| 20260507134336 | 62 | 292 | 0.0 | 5.0 | 0.00 | 0.18 | 0.01 | 26 | 1014.5 |
| 20260507132536 | 61 | 313 | 2.0 | 8.0 | 0.00 | 0.19 | 0.01 | 26 | 1014.6 |